Regional Weather Roundup
Issued by NWS Memphis, TN

Home | Current Version | Previous Version | Text Only | Print | Product List | Glossary On
Versions: 1 2 3 4 5 6 7 8 9 10 11 12 13 14 15 16 17 18 19 20 21 22 23 24 25 26 27 28 29 30 31 32 33 34 35 36 37 38 39 40 41 42 43 44 45 46 47 48 49 50
000
ASUS44 KMEG 270710
RWRMEG
MEMPHIS CWA HOURLY WEATHER ROUNDUP
NATIONAL WEATHER SERVICE MEMPHIS TN
200 AM CDT WED JUL 27 2016

...WEST TENNESSEE...

CITY           SKY/WX    TMP DP  RH WIND       PRES   REMARKS
MEMPHIS INTL   CLEAR     82  71  69 CALM      29.93F
NWS MEMPHIS      N/A     77 N/A N/A MISG        N/A
JACKSON        PTCLDY    74  73  97 CALM      29.95F
LEXINGTON      CLEAR     73  72  94 CALM      29.96S
DYERSBURG      CLEAR     75  72  88 MISG      29.95F
UNION CITY     PTCLDY    73  73 100 CALM      29.95F
PARIS          CLOUDY    73  72  94 CALM      29.98F


...EASTERN ARKANSAS...

CITY           SKY/WX    TMP DP  RH WIND       PRES   REMARKS
JONESBORO      CLEAR     77  74  90 NE5       29.94F
WEST MEMPHIS   CLEAR     78  75  90 E3        29.91F
BATESVILLE     CLEAR     73  72  94 CALM      29.95F
NEWPORT        PTCLDY    77  77 100 E5        29.95F
WALNUT RIDGE   CLEAR     75  72  88 E7        29.94F
BLYTHEVILLE    CLOUDY    77  74  90 E7        29.95S
SEARCY         CLEAR     78  74  87 N3        29.95S
STUTTGART      CLEAR     79  70  73 CALM      29.93S
PINE BLUFF     CLEAR     78  74  87 W5        29.92F
MONTICELLO     CLEAR     79  73  82 SW3       29.92F


...NORTH MISSISSIPPI...

CITY           SKY/WX    TMP DP  RH WIND       PRES   REMARKS
TUPELO         CLEAR     79  73  82 SE6       29.95F
OXFORD         CLEAR     77  72  83 SE6       29.96F
BATESVILLE     CLEAR     75  73  92 CALM      29.94S
TUNICA         CLEAR     77  73  88 CALM      29.93F
CLARKSDALE     CLEAR     77  77 100 CALM      29.92S
CORINTH        CLEAR     75  72  88 CALM      29.95F
GREENWOOD      MOCLDY    77  73  87 S3        29.93S
COLUMBUS       MOCLDY    78  75  91 SE5       29.95F
GOLDEN TRIANGL CLOUDY    77  70  78 S8        29.95F


...SOUTHEAST MISSOURI...

CITY           SKY/WX    TMP DP  RH WIND       PRES   REMARKS
KENNETT        CLOUDY    77  75  94 CALM      29.93F
WEST PLAINS    PTCLDY    73  69  87 CALM      30.01F
POPLAR BLUFF   PTCLDY    74  72  93 N3        29.96F
CAPE GIRARDEAU CLEAR     75  73  93 N3        29.97S


...NORTHWEST ALABAMA...

CITY           SKY/WX    TMP DP  RH WIND       PRES   REMARKS
MUSCLE SHOALS  CLEAR     76  71  85 CALM      29.98F


...MIDDLE TENNESSEE...

CITY           SKY/WX    TMP DP  RH WIND       PRES   REMARKS
NASHVILLE      CLOUDY    76  73  91 CALM      29.98F
CLARKSVILLE    PTCLDY    76  73  91 W5        29.98S
COLUMBIA       CLEAR    N/A N/A N/A CALM      29.97F


...WESTERN KENTUCKY...

CITY           SKY/WX    TMP DP  RH WIND       PRES   REMARKS
PADUCAH        CLOUDY    76  73  91 NE3       29.96F
FORT CAMPBELL  PTCLDY    77  75  93 CALM      29.97S


...CENTRAL ARKANSAS...

CITY           SKY/WX    TMP DP  RH WIND       PRES   REMARKS
LITTLE ROCK    PTCLDY    81  74  79 E7        29.93R


SKY/WX REPORTED AS FAIR MEANS FEW OR NO CLOUDS BELOW
12 THOUSAND FEET.





USA.gov is the U.S. government's official web portal to all federal, state and local government web resources and services.